Location: Beaver Brook Station
(42.3793°N, 71.2203°W)
Time: 01:54:31
(UTC+00:00)

ARGOS - Pass Details

Date: 29 October 2020
Orbit: 819 x 835 km, 98.4° (Epoch: 05 December)

Event Time Altitude Azimuth Distance (km) Brightness Sun altitude
Exits shadow 23:21:55 34° 100° (E) 1,347 3.7 -19.1°
Maximum altitude 23:23:13 39° 68° (ENE) 1,231 3.6 -19.3°
Drops below altitude 10° 23:28:14 10° 1° (N) 2,456 5.6 -20.2°
Sets 23:30:43 0° 354° (N) 3,394 6.4 -20.7°
